Regional Weather Roundup
Issued by NWS

Home | Current Version | Previous Version | Graphics & Text | Print | Product List | Glossary On
Versions: 1 2 3 4 5 6 7 8 9 10 11 12 13 14 15 16 17 18 19 20 21 22 23 24 25 26 27 28 29 30 31 32 33 34 35 36 37 38 39 40 41 42 43 44 45 46 47 48 49 50
000
ASUS43 KFSD 312310
RWRSD

WEATHER ROUNDUP FOR SOUTH DAKOTA
NATIONAL WEATHER SERVICE SIOUX FALLS SD
600 PM CDT TUE MAY 31 2016

NOTE: "FAIR" INDICATES FEW OR NO CLOUDS BELOW 12,000 FEET WITH NO
SIGNIFICANT WEATHER AND/OR OBSTRUCTIONS TO VISIBILITY.


SDZ001>005-009-010-012>017-010000-
NORTHWEST AND NORTH CENTRAL SOUTH DAKOTA

CITY           SKY/WX    TMP DP  RH WIND       PRES   REMARKS
BUFFALO          N/A     55  48  77 NW33G43   29.90S
FAITH            N/A     55  42  61 NW22G33   29.90R
MOBRIDGE       CLOUDY    61  47  59 W29G41    29.71S
$$

SDZ012>016-024>037-041>051-057-063-072>074-010000-
SOUTHWEST AND SOUTH CENTRAL SOUTH DAKOTA

CITY           SKY/WX    TMP DP  RH WIND       PRES   REMARKS
RAPID CTY ARPT CLOUDY    61  41  47 NW24G32   30.01R
PIERRE         MOSUNNY   66  46  48 W32G46    29.85S
CUSTER         MOSUNNY   54  35  48 NW20G36   30.07R
ELLSWORTH AFB  PTSUNNY   59  42  53 NW30G39   30.00R
PHILIP         PTSUNNY   62  45  53 NW30G41   29.94R
PINE RIDGE     SUNNY     67  38  34 NW23G35   30.00R
WINNER         FAIR      72  44  36 NW24G37   29.88S
$$

SDZ004>011-016>023-039-040-010000-
NORTHEAST SOUTH DAKOTA

CITY           SKY/WX    TMP DP  RH WIND       PRES   REMARKS
ABERDEEN       CLOUDY    66  48  52 SW33G40   29.72F
WATERTOWN      PTSUNNY   70  43  37 SW25G36   29.78F
SISSETON         N/A     69  46  43 W17G26    29.73F
$$

SDZ017-020-022-023-036>040-048>070-010000-
SOUTHEAST SOUTH DAKOTA

CITY           SKY/WX    TMP DP  RH WIND       PRES   REMARKS
SIOUX FALLS    MOSUNNY   72  47  40 SW7       29.86F
HURON          MOSUNNY   72  45  37 W28G41    29.81F
CHAMBERLAIN    SUNNY     73  48  42 NW21G35   29.86S
MITCHELL       MOSUNNY   75  48  38 NW17      29.83F
YANKTON        SUNNY     73  46  38 SW10      29.85F
$$

ABBREVIATIONS USED IN REMARKS
   TC - TEMPERATURE IN CELSIUS
  WCI - WIND CHILL INDEX
   HX - HEAT INDEX
  VSB - VISIBILITY





USA.gov is the U.S. government's official web portal to all federal, state and local government web resources and services.